Location: Morgantown
(40.9734°N, 80.6323°W)
Time: 20:54:44
(UTC+00:00)

ISS - Visible Passes

Search period start: 19 June 2021 00:00
Search period end: 29 June 2021 00:00
Orbit: 417 x 422 km, 51.6° (Epoch: 18 June)

Date Brightness Start Highest point End Pass type
(mag) Time Alt. Az. Time Alt. Az. Time Alt. Az.
24 Jun -1.3 09:10:43 10° SSE 09:12:47 15° SE 09:14:50 10° E visible
26 Jun -3.0 09:11:08 10° SSW 09:14:22 45° SE 09:17:36 10° ENE visible
27 Jun -2.2 08:25:17 17° S 08:27:00 26° SE 08:29:52 10° ENE visible
28 Jun -1.5 07:39:39 15° SE 07:39:42 15° SE 07:41:47 10° E visible
28 Jun -3.4 09:12:50 10° WSW 09:16:10 61° NNW 09:19:31 10° NE visible
